This demonstration page uses our WeatherBlox Daily Observations layout. Learn more.

Left ArrowRight Arrow

53.62937, 11.41316

Hourly Observations for October 5, 2015

Temp ( °F °C ) Dew Point ( °F °C ) Humidity (%) Winds ( mph kmh ) Pressure ( in mb ) Visibility ( mi km ) Precip ( " mm )
6:20 am 06:20 Mostly Cloudy with Fog 41 5 39 4 93 93 E 3 6 30.00 1016 0 0 N/A
6:50 am 06:50 Mostly Cloudy with Fog 39 4 39 4 100 100 VRB 2 4 30.00 1016 0 0 N/A
7:20 am 07:20 Mostly Cloudy with Fog 39 4 39 4 100 100 VRB 1 2 30.00 1016 0 0 N/A
7:50 am 07:50 Mostly Cloudy with Fog 37 3 37 3 100 100 VRB 1 2 30.00 1016 0 0 N/A
8:20 am 08:20 Mostly Cloudy with Fog 39 4 39 4 100 100 VRB 1 2 30.03 1017 0 0 N/A
8:50 am 08:50 Mostly Cloudy with Fog 41 5 41 5 100 100 VRB 1 2 30.03 1017 0 1 N/A
9:20 am 09:20 Mostly Cloudy with Fog 43 6 43 6 100 100 VRB 1 2 30.03 1017 0 0 N/A
9:50 am 09:50 Mostly Cloudy with Fog 46 8 45 7 93 93 VRB 1 2 30.03 1017 0 0 N/A
10:20 am 10:20 Partly Cloudy with Mist and Fog 48 9 48 9 100 100 VRB 1 2 30.03 1017 2 3 N/A
10:50 am 10:50 Mostly Sunny 54 12 54 12 100 100 VRB 2 4 30.06 1018 4 6 N/A
11:20 am 11:20 Mostly Sunny 57 14 54 12 88 88 VRB 1 2 30.06 1018 5 8 N/A
11:50 am 11:50 Mostly Sunny 59 15 54 12 82 82 VRB 2 4 30.06 1018 6 9 N/A
12:20 pm 12:20 Mostly Sunny 63 17 54 12 73 73 ESE 5 7 30.03 1017 7 11 N/A
12:50 pm 12:50 Mostly Sunny 63 17 52 11 68 68 S 3 6 30.03 1017 7 11 N/A
1:20 pm 13:20 Mostly Sunny 63 17 50 10 64 64 ESE 3 6 30.03 1017 7 11 N/A
1:50 pm 13:50 Mostly Sunny 64 18 52 11 64 64 ESE 6 9 30.00 1016 7 11 N/A
2:20 pm 14:20 Mostly Sunny 64 18 50 10 60 60 E 6 9 30.00 1016 7 11 N/A
2:50 pm 14:50 Mostly Sunny 64 18 50 10 60 60 ENE 9 15 30.00 1016 7 11 N/A
3:20 pm 15:20 Mostly Sunny 64 18 50 10 60 60 E 6 9 30.00 1016 7 11 N/A
3:50 pm 15:50 Mostly Sunny 64 18 50 10 60 60 E 8 13 30.00 1016 7 11 N/A
4:20 pm 16:20 Mostly Sunny 63 17 48 9 59 59 ENE 9 15 29.97 1015 7 11 N/A
4:50 pm 16:50 Mostly Sunny 63 17 48 9 59 59 ENE 10 17 29.97 1015 7 11 N/A
5:20 pm 17:20 Mostly Sunny 61 16 52 11 72 72 E 9 15 29.97 1015 7 11 N/A
5:50 pm 17:50 Mostly Sunny 61 16 50 10 68 68 E 9 15 29.97 1015 7 11 N/A
6:20 pm 18:20 Mostly Sunny 59 15 50 10 72 72 E 10 17 29.97 1015 7 11 N/A
6:50 pm 18:50 Mostly Clear 57 14 50 10 77 77 E 8 13 29.97 1015 7 11 N/A

Powered by AerisWeather